TimeCDT,TemperatureF,Dew PointF,Humidity,Sea Level PressureIn,VisibilityMPH,Wind Direction,Wind SpeedMPH,Gust SpeedMPH,PrecipitationIn,Events,Conditions,WindDirDegrees,DateUTC
12:15 AM,75.7,68.0,77,29.83,7.0,SE,12.7,20.7,N/A,,Overcast,130,2014-04-02 05:15:00
12:35 AM,75.7,68.2,77,29.83,7.0,SE,12.7,23.0,N/A,,Overcast,140,2014-04-02 05:35:00
12:55 AM,75.7,68.4,78,29.82,7.0,SE,13.8,21.9,N/A,,Overcast,140,2014-04-02 05:55:00
1:15 AM,75.6,68.4,78,29.82,7.0,SE,11.5,21.9,N/A,,Overcast,140,2014-04-02 06:15:00
1:35 AM,75.6,68.5,79,29.82,7.0,SE,16.1,25.3,N/A,,Overcast,140,2014-04-02 06:35:00
1:55 AM,75.4,68.4,79,29.81,7.0,SE,13.8,20.7,N/A,,Overcast,140,2014-04-02 06:55:00
2:15 AM,75.4,68.4,79,29.80,7.0,SSE,15.0,23.0,N/A,,Overcast,150,2014-04-02 07:15:00
2:35 AM,75.2,68.2,79,29.79,7.0,SE,18.4,23.0,N/A,,Overcast,140,2014-04-02 07:35:00
2:55 AM,75.2,68.4,79,29.78,7.0,SE,13.8,21.9,N/A,,Overcast,140,2014-04-02 07:55:00
3:15 AM,75.2,68.4,79,29.78,7.0,SE,13.8,21.9,N/A,,Overcast,140,2014-04-02 08:15:00
3:35 AM,74.8,68.2,80,29.78,7.0,SE,9.2,24.2,N/A,,Overcast,140,2014-04-02 08:35:00
3:55 AM,74.7,68.2,80,29.78,7.0,SSE,9.2,20.7,N/A,,Overcast,150,2014-04-02 08:55:00
4:15 AM,74.5,68.4,81,29.79,7.0,SSE,11.5,17.3,N/A,,Overcast,160,2014-04-02 09:15:00
4:35 AM,74.3,68.4,82,29.79,7.0,SSE,9.2,-,N/A,,Overcast,160,2014-04-02 09:35:00
4:55 AM,74.3,68.2,81,29.78,7.0,SSE,5.8,-,N/A,,Overcast,150,2014-04-02 09:55:00
5:15 AM,74.3,68.2,81,29.77,7.0,SSE,9.2,-,N/A,,Overcast,150,2014-04-02 10:15:00
5:35 AM,74.3,68.2,81,29.77,7.0,SSE,9.2,16.1,N/A,,Overcast,150,2014-04-02 10:35:00
5:55 AM,74.3,68.2,81,29.77,7.0,SE,6.9,-,N/A,,Overcast,140,2014-04-02 10:55:00
6:15 AM,74.3,68.2,81,29.77,7.0,SSE,5.8,-,N/A,,Overcast,150,2014-04-02 11:15:00
7:35 AM,74.3,68.0,81,29.77,7.0,SSE,6.9,-,N/A,,Overcast,150,2014-04-02 12:35:00
7:55 AM,74.3,68.2,81,29.78,5.0,SSE,6.9,-,N/A,,Haze,150,2014-04-02 12:55:00
8:15 AM,74.3,68.2,81,29.79,5.0,SSE,8.1,-,N/A,,Haze,160,2014-04-02 13:15:00
8:35 AM,74.3,68.0,81,29.79,5.0,SSE,11.5,16.1,N/A,,Haze,150,2014-04-02 13:35:00
8:55 AM,74.5,68.0,80,29.80,5.0,SSE,8.1,-,N/A,,Haze,160,2014-04-02 13:55:00
9:15 AM,74.7,68.0,80,29.81,5.0,South,5.8,-,N/A,,Haze,170,2014-04-02 14:15:00
9:35 AM,75.0,68.0,79,29.81,5.0,South,9.2,-,N/A,,Haze,170,2014-04-02 14:35:00
9:55 AM,75.6,68.2,78,29.82,5.0,South,9.2,-,N/A,,Haze,170,2014-04-02 14:55:00
10:15 AM,77.4,68.5,74,29.81,5.0,SSE,10.4,-,N/A,,Haze,150,2014-04-02 15:15:00
10:35 AM,78.6,68.2,70,29.81,5.0,SSE,13.8,19.6,N/A,,Haze,150,2014-04-02 15:35:00
10:55 AM,79.3,68.4,69,29.81,7.0,SSE,10.4,20.7,N/A,,Mostly Cloudy,150,2014-04-02 15:55:00
11:35 AM,82.9,68.2,61,29.81,7.0,South,10.4,23.0,N/A,,Clear,170,2014-04-02 16:35:00
11:55 AM,84.9,67.8,56,29.79,7.0,SSE,15.0,23.0,N/A,,Clear,160,2014-04-02 16:55:00
12:15 PM,86.2,68.0,54,29.79,7.0,South,12.7,19.6,N/A,,Clear,170,2014-04-02 17:15:00
12:35 PM,87.1,67.3,52,29.78,7.0,South,12.7,19.6,N/A,,Clear,170,2014-04-02 17:35:00
12:55 PM,88.0,66.0,48,29.77,7.0,South,10.4,18.4,N/A,,Clear,170,2014-04-02 17:55:00
1:15 PM,88.9,65.7,46,29.76,7.0,SSE,13.8,18.4,N/A,,Clear,160,2014-04-02 18:15:00
1:35 PM,91.2,65.1,42,29.75,7.0,South,6.9,16.1,N/A,,Clear,170,2014-04-02 18:35:00
1:55 PM,91.8,64.8,41,29.74,7.0,South,8.1,16.1,N/A,,Clear,170,2014-04-02 18:55:00
2:15 PM,92.5,62.4,37,29.73,7.0,SSW,9.2,-,N/A,,Clear,200,2014-04-02 19:15:00
2:35 PM,93.4,61.2,34,29.72,7.0,South,6.9,17.3,N/A,,Clear,190,2014-04-02 19:35:00
2:55 PM,93.7,59.7,32,29.71,10.0,South,5.8,-,N/A,,Clear,180,2014-04-02 19:55:00
3:15 PM,94.6,58.8,30,29.70,10.0,SSE,9.2,-,N/A,,Clear,160,2014-04-02 20:15:00
3:35 PM,94.8,59.0,30,29.69,7.0,SSE,5.8,-,N/A,,Clear,160,2014-04-02 20:35:00
3:55 PM,96.1,58.3,28,29.68,10.0,SE,6.9,-,N/A,,Clear,140,2014-04-02 20:55:00
4:15 PM,96.4,56.8,27,29.67,10.0,South,6.9,-,N/A,,Clear,180,2014-04-02 21:15:00
4:35 PM,96.6,55.9,26,29.66,10.0,ESE,9.2,-,N/A,,Clear,120,2014-04-02 21:35:00
5:15 PM,97.3,55.2,24,29.64,10.0,ESE,5.8,9.2,N/A,,Clear,110,2014-04-02 22:15:00
5:35 PM,96.8,57.7,27,29.64,10.0,SE,11.5,16.1,N/A,,Clear,140,2014-04-02 22:35:00
5:55 PM,95.5,58.5,29,29.64,10.0,SSE,13.8,19.6,N/A,,Clear,150,2014-04-02 22:55:00
6:15 PM,95.0,58.5,29,29.64,10.0,ESE,10.4,-,N/A,,Clear,120,2014-04-02 23:15:00
6:35 PM,95.2,57.6,28,29.64,10.0,SE,10.4,18.4,N/A,,Clear,130,2014-04-02 23:35:00
6:55 PM,94.5,58.6,30,29.64,10.0,ESE,13.8,20.7,N/A,,Clear,120,2014-04-02 23:55:00
7:15 PM,93.2,60.1,33,29.64,7.0,SE,10.4,-,N/A,,Clear,130,2014-04-03 00:15:00
7:35 PM,91.8,60.1,34,29.64,7.0,SE,12.7,18.4,N/A,,Clear,130,2014-04-03 00:35:00
7:55 PM,90.7,60.8,37,29.65,7.0,SE,10.4,17.3,N/A,,Clear,130,2014-04-03 00:55:00
8:15 PM,89.6,62.6,40,29.65,10.0,SE,10.4,16.1,N/A,,Clear,140,2014-04-03 01:15:00
9:15 PM,86.0,69.1,57,29.67,10.0,ESE,12.7,21.9,N/A,,Clear,120,2014-04-03 02:15:00
9:35 PM,84.7,69.3,60,29.69,10.0,SE,8.1,-,N/A,,Clear,130,2014-04-03 02:35:00
11:55 PM,78.8,68.0,69,29.72,10.0,SE,10.4,-,N/A,,Clear,130,2014-04-03 04:55:00